CZ-2C DEB, 40290

Orbit data source: Space-Track

CZ-2C DEB, 40290 is space debris in SSO originally from a launch on Mon, 27 Oct 2014 UTC launched from the Jiuquan Satellite Launch Center, China (JSC). Debris objects in space refer to the collection of defunct objects orbiting the Earth. Examples of debris include non-operational satellites, rocket bodies, and fragments generated from explosions, collisions, or faulty payload assembly.

Loading next visibility...
Identifier
40290, 2014-066E
Orbit
SSO
Last TLE update
11 hours ago
Origin
Manufacturer
CALT
Mission
Spacecraft
Bus & Motor
Unknown
Mass
1 kg wet, 1 kg dry
Launch date (UTC)
2014-10-27 (11 years ago)
Launch vehicle
Unknown
Launch site
Jiuquan Satellite Launch Center, China (JSC)
Object type
Payload
Rocket body
Debris
Shape & HBR
Cone, 0.2 m
Radar Cross Section
0.025 m², Small (<0.1 m²)

Expand to show TLE details & history

TLE from 11 hours ago
0 CZ-2C DEB
1 40290U 14066E   25181.91860216  .00008821  00000-0  10038-2 0  9995
2 40290  97.9052 152.2655 0053265 273.0188  86.4932 14.85416012567591
Epoch: 2025-06-30T22:02Z
TLE epoch observation values (Epoch: 2025-06-30T22:02:47.226Z)
Latitude
-0.00008°
Longitude
-97.65278°
Altitude
613.229 km
Speed
7.554 km/s
True Right ascension
10h 09m 03s
True Declination
0° 00' 00"
Sunlit
Object was in daylight at epoch
Visualization orbit readout
Latitude
-43.2008°
Longitude
-89.74128°
Altitude
602.497 km
Speed
7.571 km/s
Apparent Right ascension
09h 45m 39s
Apparent Declination
-42° 18' 52"
Sunlit
Object is in daylight
Visualization observer readout
Local Sidereal Time
20:48:20
Azimuth
252.812° W
Elevation
-78.957°
Doppler factor
1
Orbital elements
Apogee altitude
646.533 km
Perigee altitude
572.095 km
Semi-major axis
6,987.451 km
Eccentricity
0.00533
Inclination
97.9052°
RAAN
152.2655°
Arg. of periapsis
273.0188°
True anomaly
Unknown
Mean anomaly
86.4932°
Eccentric anomaly
Unknown
Mean motion
3.71591 °/min
Orbital period
96.88 mins
BSTAR
0.0010038
Loading maneuver chart data...
Loading SW <> Apogee altitude chart data...
Loading historical data...
Loading historical data...
Loading historical data...
Loading historical data...
Loading historical data...
Loading historical data...
Loading historical data...
Other satellites on launch #66 in the year 2014 (2014-10-27 UTC)

CZ-2C DEB Visibility forecast

Observer location: undefined°, undefined°

Span
Click to sort rows by Start time (UTC) header in descending order
Start Az.
Max El. time (UTC)
Max El. Az.
Max El.
End time (UTC)
End Az.
6 mins2025-07-01 09:57:06.435Z48.167° ENE2025-07-01 10:00:06.435Z93.381° ESE18.925°2025-07-01 10:03:06.435Z139.159° SSE
5 mins2025-07-01 11:34:06.435Z336.938° NNW2025-07-01 11:36:06.435Z290.229° WNW29.819°2025-07-01 11:39:06.435Z231.028° WSW
6 mins2025-07-01 22:26:06.435Z195.683° SSW2025-07-01 22:28:06.435Z243.089° WSW36.828°2025-07-01 22:32:06.435Z333.794° NNW
|